Terminal Aerodrome Forecast
Issued by NWS

Home | Current Version | Previous Version | Text Only | Print | Product List | Glossary On
Versions: 1 2 3 4 5 6 7 8 9 10 11 12 13 14 15 16 17 18 19 20 21 22 23 24 25 26 27 28
000
FTUS45 KREV 302300
TAFTRK
TAF
KTRK 302320Z 3100/3124 03010G18KT P6SM SCT040
     FM310200 VRB03KT P6SM SKC
     FM311300 00000KT 1/2SM FZFG VV002
     FM311500 VRB03KT P6SM FEW002
      AMD NOT SKED 3102/3112=

USA.gov is the U.S. government's official web portal to all federal, state and local government web resources and services.